Wind_Speed
13 14 16 16 16 17 18 18 19 21 21 21 20 19 19 19 21 23 25 28 30 33 35 37 39 39 40 40 40 39 39 38 38 39 39 38 36 33 26 25 29 30 31 31
11 11 13 14 14 14 15 17 18 19 20 21 21 20 21 22 24 26 29 31 34 37 39 41 41 40 40 41 40 40 39 40 40 40 39 38 36 33 26 23 24 25 29 30
8 10 10 11 11 12 13 14 16 17 19 19 20 21 22 24 26 28 30 32 35 37 39 39 38 39 40 40 41 41 41 42 42 41 40 38 35 32 28 26 25 24 25 26
4 5 7 8 9 10 9 10 12 13 15 17 18 19 20 23 25 27 29 31 32 32 33 34 36 38 39 40 41 43 43 44 43 42 41 39 37 34 31 29 28 27 27 28
2 4 5 6 7 7 6 7 8 9 11 13 15 16 18 21 22 24 26 27 27 29 30 31 33 35 37 39 41 43 44 45 45 45 44 42 39 37 35 33 32 30 30 30
1 2 4 5 6 5 6 6 7 9 10 12 14 16 17 20 22 23 25 26 28 29 31 33 35 36 38 40 42 44 45 46 46 46 46 45 43 41 40 39 38 37 36 35
0 2 4 4 5 7 8 8 9 10 10 12 14 16 18 21 23 25 26 28 30 31 33 35 37 39 40 41 42 44 44 45 46 47 47 47 47 46 45 44 43 43 42 41
2 2 4 6 7 8 10 11 13 14 15 16 17 19 21 23 25 27 29 31 33 34 36 38 39 39 40 41 43 44 46 47 48 49 50 50 50 50 50 49 49 48 48 47
1 3 5 7 8 10 11 13 15 17 18 20 20 21 23 26 28 30 33 35 36 38 39 40 41 42 43 44 45 47 48 48 49 49 49 49 49 49 49 49 51 52 53 53
4 5 7 9 11 11 12 14 16 18 21 22 22 23 25 27 30 33 35 37 39 41 43 44 45 47 48 49 50 50 49 48 47 46 45 44 44 45 46 46 48 50 53 55
7 9 10 11 11 12 13 15 17 19 20 23 25 26 28 30 33 35 38 40 42 44 46 48 49 51 53 53 53 52 51 49 46 45 44 43 43 44 44 45 46 47 50 53
10 12 13 12 12 12 14 16 17 19 21 23 26 28 30 33 35 37 39 42 44 47 49 50 52 54 55 54 53 52 51 49 48 47 48 48 48 48 47 46 46 47 49 51
12 13 13 13 13 14 15 16 17 19 21 24 27 29 31 34 36 39 41 43 46 47 49 51 53 53 52 51 50 50 50 51 52 53 54 54 53 52 51 50 48 47 47 49
13 12 11 11 11 12 14 15 18 20 22 25 27 29 32 34 36 39 41 44 45 47 50 52 52 51 50 49 49 50 53 55 57 58 58 58 57 56 56 55 53 51 50 49
14 12 11 11 11 13 15 17 20 22 24 26 28 30 32 35 37 40 43 44 46 48 50 50 50 48 47 48 50 53 56 58 60 60 61 62 62 62 61 59 56 54 53 52
14 14 13 12 14 16 18 20 22 23 25 26 29 31 34 37 40 43 45 46 48 49 50 49 48 47 47 50 52 56 58 60 61 62 63 63 63 62 60 58 55 53 52 52
14 14 14 14 15 17 19 21 23 24 26 29 32 34 36 38 42 45 46 47 49 50 50 49 47 47 49 52 55 58 60 62 63 64 63 62 61 59 55 52 50 49 48 49
12 13 14 15 17 18 21 22 24 25 28 30 33 36 38 40 42 46 49 49 50 51 50 48 47 48 51 54 57 59 61 62 63 63 61 59 57 54 50 46 45 43 43 44
14 15 17 18 19 20 23 24 26 28 29 32 35 38 40 42 42 45 47 48 49 51 50 48 48 50 52 55 57 59 60 62 62 60 58 56 53 48 43 40 38 38 38 39
15 17 19 20 22 24 25 26 28 30 32 34 37 40 43 45 46 47 48 49 50 51 50 49 50 51 53 55 57 58 60 60 59 57 54 51 47 41 37 33 30 31 33 35
17 18 20 21 22 23 25 27 30 32 34 36 38 41 44 47 50 51 51 52 52 52 50 49 50 51 53 54 56 57 58 57 56 53 50 47 42 36 30 25 22 22 25 29
19 20 21 21 22 24 25 28 30 32 34 36 38 41 44 47 49 51 51 52 52 51 49 49 49 50 52 53 55 56 55 55 53 50 47 43 38 31 25 20 16 15 18 22
20 20 21 22 23 24 26 28 30 32 34 36 39 41 44 47 49 51 52 52 52 51 49 48 48 49 50 52 53 54 53 52 50 48 45 40 35 29 24 19 13 10 13 17
20 20 21 22 23 25 27 29 30 32 34 37 40 42 45 47 50 52 52 52 52 51 49 47 47 47 48 50 52 52 52 51 48 45 42 39 35 30 25 19 12 6 7 12
20 20 21 22 24 26 28 30 31 33 35 37 40 43 45 48 50 52 52 51 51 51 48 46 46 47 47 48 50 50 50 49 46 42 40 38 34 31 27 21 15 8 3 5
21 21 22 24 26 27 29 31 32 33 35 38 40 43 46 48 49 51 52 51 51 51 48 46 45 45 45 47 48 49 48 47 44 40 37 36 34 31 27 23 18 13 7 1
Wind_Direction
265 266 268 270 268 262 259 260 260 258 258 259 260 264 268 271 273 274 278 282 284 285 287 289 292 293 293 295 297 299 302 306 309 311 314 317 318 315 299 270 261 253 248 248
269 271 272 273 269 264 265 267 268 268 269 269 269 270 273 275 277 279 280 281 283 285 286 288 290 291 292 292 295 296 299 301 304 307 310 314 315 316 307 284 275 260 252 252
286 279 273 266 267 268 272 275 277 279 281 282 281 279 279 280 282 284 284 285 287 287 289 288 288 289 291 292 293 294 296 298 300 302 305 308 310 311 304 291 284 273 265 257
278 272 262 258 264 271 275 284 287 289 291 292 293 290 287 287 287 288 289 290 291 292 292 290 289 290 291 290 291 292 294 296 297 299 300 301 302 301 297 291 284 276 268 263
249 254 254 256 266 274 283 297 299 300 302 301 300 298 294 291 291 293 295 296 297 298 297 295 295 294 293 293 293 294 295 296 296 296 296 296 294 292 288 284 279 274 268 264
282 260 254 254 263 281 301 309 313 310 307 303 302 301 298 294 296 298 299 300 300 301 299 299 299 299 297 296 296 296 296 296 295 295 293 291 288 285 281 278 274 269 265 263
165 243 254 263 274 289 298 308 312 312 309 306 305 305 303 302 303 303 303 304 304 303 303 303 302 301 300 299 297 296 295 294 293 291 289 287 285 281 277 273 269 265 262 259
160 234 270 278 286 296 306 310 313 313 313 312 310 310 308 307 307 308 308 309 309 308 307 306 305 303 302 300 298 297 295 293 291 289 287 285 282 279 276 271 267 263 259 256
327 300 303 303 306 306 311 312 315 315 315 315 314 312 310 310 310 311 312 313 314 313 312 311 309 307 306 304 302 300 299 297 295 293 291 288 284 280 276 272 267 262 258 254
357 337 329 324 320 321 318 316 315 316 317 317 318 318 318 315 314 315 316 317 317 316 315 315 314 313 311 310 309 307 306 304 302 299 295 291 288 284 279 274 269 264 259 254
352 342 335 330 328 326 322 318 318 319 320 320 321 323 322 320 320 320 320 320 319 319 319 318 317 316 315 314 313 311 310 309 306 303 300 297 293 290 285 280 273 267 261 257
348 344 340 338 336 334 329 327 325 324 324 324 324 325 325 323 323 322 322 322 322 322 322 320 319 318 317 315 315 314 313 311 309 306 303 300 297 293 288 283 278 271 265 259
346 344 343 342 341 339 336 332 329 328 328 328 328 327 326 325 325 325 325 324 324 323 322 320 319 318 317 316 315 315 314 312 309 306 303 300 297 293 289 284 279 274 268 262
343 345 345 343 341 338 335 334 335 335 334 331 330 329 328 328 328 327 325 325 324 324 322 321 321 320 318 318 317 316 314 312 309 307 304 300 296 292 288 284 279 273 267 262
341 345 346 345 344 342 341 339 339 339 336 333 333 333 332 331 330 328 327 327 327 326 325 324 323 322 321 320 319 318 316 314 311 308 305 302 298 293 289 284 278 272 266 261
336 337 339 341 342 341 339 338 339 339 337 336 337 337 336 335 333 331 331 331 330 329 329 327 326 324 323 322 321 320 318 316 313 310 307 303 300 296 291 284 277 270 264 259
326 326 327 330 334 335 334 336 339 340 339 339 340 340 338 337 336 334 334 333 332 332 331 330 328 327 326 325 324 322 321 319 317 313 310 307 303 299 292 284 276 269 263 256
315 314 317 323 328 332 334 337 339 340 340 340 340 340 340 341 340 337 336 335 334 334 333 332 331 329 328 328 327 326 325 323 321 318 314 311 307 302 294 286 277 268 259 252
310 313 317 323 329 332 334 335 336 338 340 339 339 341 342 342 342 339 337 336 336 336 336 335 334 332 331 330 330 329 328 327 325 322 319 316 313 306 298 288 277 266 256 248
310 313 318 324 329 332 333 333 334 336 339 339 340 342 342 342 342 342 341 339 339 339 338 337 336 334 333 333 333 333 332 331 331 329 326 324 321 314 306 294 279 265 252 244
315 318 320 323 327 328 329 330 333 335 336 338 340 341 342 342 343 343 343 343 342 341 340 339 337 336 336 336 337 337 337 337 338 337 335 333 330 325 316 304 286 267 249 239
317 318 318 321 325 327 328 330 331 332 334 336 338 340 342 343 343 344 344 344 343 342 341 340 340 339 339 340 341 342 342 343 344 344 343 342 340 338 332 319 298 270 247 237
313 313 316 321 324 325 327 328 330 331 333 335 337 339 342 343 344 345 345 345 344 343 342 341 342 342 342 343 345 346 347 348 349 350 351 352 352 351 347 340 321 280 246 235
310 312 315 319 321 323 325 327 329 331 332 334 336 339 342 344 345 346 346 346 345 344 343 343 344 344 345 346 348 350 351 353 354 355 358 0 0 0 360 358 350 319 259 233
309 313 315 318 320 323 325 327 329 331 332 334 336 339 342 344 345 346 346 346 346 346 345 344 345 346 347 348 350 352 354 357 358 359 2 5 6 7 8 10 10 4 328 226
306 311 316 319 321 323 325 327 329 331 332 333 336 339 341 343 345 346 346 347 347 347 346 346 346 347 349 351 353 355 357 359 0 2 4 6 9 11 14 16 18 20 25 57
Height
5859 5860 5859 5860 5860 5860 5859 5859 5859 5859 5859 5859 5859 5859 5859 5859 5859 5858 5857 5855 5854 5851 5849 5847 5844 5841 5837 5834 5831 5827 5824 5821 5818 5815 5811 5806 5800 5794 5790 5790 5792 5792 5793 5795
5857 5857 5858 5857 5857 5857 5857 5857 5856 5856 5855 5856 5855 5856 5856 5855 5854 5853 5851 5850 5847 5845 5842 5839 5836 5833 5829 5826 5823 5820 5817 5814 5811 5808 5804 5800 5796 5791 5787 5788 5787 5787 5789 5790
5855 5856 5855 5856 5855 5855 5855 5854 5854 5853 5852 5852 5852 5852 5852 5851 5849 5847 5845 5843 5840 5837 5834 5831 5827 5824 5821 5818 5815 5812 5809 5806 5803 5800 5797 5794 5791 5788 5786 5785 5784 5784 5784 5785
5853 5853 5854 5854 5854 5853 5853 5852 5852 5850 5850 5849 5849 5848 5848 5845 5844 5841 5839 5836 5833 5829 5826 5823 5820 5816 5813 5810 5807 5804 5801 5798 5795 5792 5789 5787 5784 5783 5781 5780 5779 5779 5779 5778
5851 5852 5852 5852 5852 5852 5851 5851 5850 5849 5848 5847 5846 5845 5844 5841 5838 5836 5833 5830 5826 5823 5819 5816 5813 5809 5806 5802 5798 5795 5791 5788 5785 5782 5779 5777 5775 5774 5773 5772 5771 5771 5771 5770
5850 5850 5850 5850 5850 5850 5850 5850 5849 5848 5847 5846 5844 5842 5840 5836 5834 5831 5828 5824 5821 5817 5814 5810 5806 5802 5797 5793 5789 5785 5781 5777 5773 5770 5767 5765 5763 5762 5762 5761 5761 5761 5761 5761
5850 5850 5849 5849 5849 5849 5848 5848 5848 5846 5845 5843 5841 5839 5836 5832 5829 5826 5822 5818 5815 5811 5807 5802 5798 5793 5788 5783 5779 5774 5770 5765 5761 5757 5754 5751 5749 5748 5747 5747 5747 5747 5748 5749
5850 5850 5849 5848 5848 5847 5846 5846 5845 5843 5841 5840 5837 5834 5832 5827 5823 5820 5816 5811 5807 5803 5798 5793 5788 5783 5778 5773 5767 5762 5757 5752 5747 5743 5739 5736 5734 5732 5731 5731 5731 5731 5732 5734
5849 5849 5848 5847 5846 5845 5844 5843 5842 5840 5837 5835 5832 5830 5827 5822 5818 5814 5809 5804 5799 5793 5788 5782 5777 5771 5766 5760 5754 5748 5743 5737 5732 5727 5723 5719 5716 5714 5713 5712 5712 5712 5714 5716
5848 5848 5847 5846 5844 5843 5842 5840 5838 5836 5833 5830 5828 5825 5822 5817 5812 5807 5802 5796 5790 5784 5777 5771 5764 5757 5751 5744 5738 5732 5726 5720 5715 5710 5706 5702 5699 5696 5694 5693 5693 5693 5694 5695
5847 5847 5846 5844 5842 5840 5839 5837 5834 5832 5829 5826 5822 5822 5815 5810 5805 5799 5794 5787 5781 5774 5767 5759 5751 5743 5736 5729 5722 5715 5709 5704 5699 5695 5690 5686 5683 5679 5676 5675 5674 5673 5674 5674
5846 5845 5843 5841 5839 5838 5836 5833 5831 5829 5826 5822 5818 5817 5809 5804 5798 5792 5786 5779 5771 5764 5755 5747 5739 5731 5723 5715 5708 5701 5695 5689 5684 5679 5675 5670 5666 5662 5659 5656 5654 5653 5653 5654
5845 5844 5841 5839 5839 5836 5833 5830 5828 5826 5822 5818 5814 5813 5804 5798 5792 5785 5778 5771 5763 5755 5747 5738 5730 5721 5712 5704 5696 5689 5682 5675 5669 5663 5657 5652 5647 5643 5639 5636 5635 5633 5633 5633
5844 5842 5841 5839 5837 5834 5831 5829 5826 5823 5819 5815 5811 5806 5800 5793 5786 5779 5772 5764 5756 5748 5738 5729 5719 5710 5701 5693 5685 5677 5669 5660 5653 5645 5638 5632 5627 5622 5618 5615 5612 5612 5612 5613
5842 5841 5839 5837 5835 5832 5829 5826 5823 5820 5816 5811 5807 5801 5795 5788 5781 5773 5765 5757 5748 5739 5729 5719 5709 5699 5690 5682 5673 5664 5655 5645 5636 5627 5618 5611 5604 5599 5594 5590 5588 5587 5588 5590
5840 5839 5837 5835 5833 5830 5827 5824 5820 5816 5812 5808 5802 5797 5790 5782 5773 5765 5757 5748 5739 5729 5719 5709 5699 5689 5680 5671 5662 5651 5641 5629 5618 5608 5598 5588 5580 5573 5567 5563 5562 5562 5564 5567
5840 5838 5836 5833 5831 5828 5825 5821 5817 5813 5808 5803 5797 5792 5785 5778 5768 5758 5749 5740 5730 5720 5710 5699 5689 5680 5670 5660 5650 5638 5626 5614 5601 5589 5577 5566 5556 5548 5541 5538 5537 5538 5540 5544
5839 5836 5834 5831 5829 5825 5824 5818 5814 5810 5805 5799 5793 5786 5779 5772 5762 5751 5741 5731 5721 5711 5701 5691 5680 5671 5660 5650 5638 5625 5612 5599 5584 5570 5557 5545 5534 5525 5519 5515 5514 5516 5519 5523
5836 5834 5831 5828 5824 5821 5818 5813 5809 5805 5801 5795 5788 5781 5773 5765 5758 5748 5737 5726 5715 5704 5693 5682 5671 5661 5651 5640 5627 5614 5600 5585 5570 5555 5541 5528 5516 5506 5500 5496 5495 5496 5500 5505
5833 5831 5828 5824 5820 5816 5814 5809 5804 5801 5796 5789 5782 5774 5766 5758 5750 5742 5731 5719 5708 5696 5684 5674 5664 5653 5643 5631 5618 5604 5589 5574 5558 5542 5527 5514 5501 5491 5484 5480 5479 5481 5484 5490
5830 5827 5823 5820 5816 5814 5810 5805 5801 5796 5791 5783 5776 5769 5761 5751 5742 5732 5721 5710 5699 5688 5677 5667 5657 5646 5635 5623 5610 5596 5580 5565 5549 5533 5518 5504 5492 5482 5475 5471 5469 5470 5473 5479
5825 5822 5819 5816 5813 5812 5806 5801 5797 5793 5786 5779 5772 5764 5756 5747 5737 5727 5716 5704 5693 5683 5672 5662 5651 5640 5628 5616 5603 5589 5574 5558 5542 5527 5513 5499 5487 5478 5471 5466 5464 5464 5467 5472
5821 5819 5815 5813 5811 5806 5801 5797 5793 5787 5781 5775 5768 5760 5751 5742 5732 5721 5710 5699 5688 5677 5667 5657 5646 5635 5623 5611 5598 5584 5569 5554 5539 5525 5511 5498 5487 5478 5471 5465 5462 5462 5464 5467
5818 5815 5812 5809 5805 5802 5797 5793 5788 5782 5776 5769 5762 5754 5745 5736 5726 5716 5705 5695 5684 5673 5662 5652 5642 5631 5619 5607 5594 5580 5566 5552 5538 5525 5512 5500 5490 5481 5473 5467 5464 5462 5463 5465
5813 5810 5808 5804 5801 5797 5793 5788 5783 5777 5770 5764 5756 5748 5739 5731 5721 5711 5701 5691 5680 5669 5658 5648 5637 5627 5616 5604 5592 5578 5565 5551 5538 5526 5515 5504 5494 5485 5477 5471 5467 5465 5464 5465
5809 5806 5803 5800 5796 5792 5788 5782 5777 5771 5765 5759 5751 5743 5735 5726 5717 5707 5697 5687 5676 5665 5655 5644 5634 5624 5613 5602 5590 5577 5565 5552 5540 5528 5518 5508 5499 5491 5483 5477 5473 5470 5468 5468